Newington, GA

8:38 PM EST on December 07, 2016 (GMT -0500)
Plantation

Weather History for KJYL - May, 2013

Change the Weather History Date:

Wednesday, May 15, 2013

  Actual Average (KSAV) Record (KSAV)
Temperature  
Mean Temperature 74 °F 73 °F  
Max Temperature 90 °F 85 °F 98 °F (1995)
Min Temperature 57 °F 62 °F 51 °F (2002)
Degree Days  
Heating Degree Days 0 0  
Month to date heating degree days 6  
Since 1 July heating degree days 1809  
Cooling Degree Days 8 8  
Month to date cooling degree days 100  
Year to date cooling degree days 236  
Growing Degree Days 24 (Base 50)    
Moisture  
Dew Point 57 °F    
Average Humidity 56    
Maximum Humidity 79    
Minimum Humidity 35    
Precipitation  
Precipitation 0.00 in 0.08 in 3.29 in (1969)
Month to date precipitation 1.25  
Year to date precipitation 14.53  
Sea Level Pressure  
Sea Level Pressure 30.13 in    
Wind  
Wind Speed 3 mph (WSW)    
Max Wind Speed 13 mph    
Max Gust Speed 21 mph    
Visibility 10 miles    
Events      
T = Trace of Precipitation, MM = Missing Value Source: NWS Daily Summary

Daily Weather History Graph

Daily Weather History Graph

Search for Another Location

Airport or City:

Trip Planner

Search our weather history database for the weather conditions in past years. The results will help you decide how hot, cold, wet, or windy it might be!

Date:

Astronomy

May. 15, 2013 Rise Set
Actual Time 6:27 AM EDT 8:18 PM EDT
Civil Twilight 6:00 AM EDT 8:45 PM EDT
Nautical Twilight 5:27 AM EDT 9:18 PM EDT
Astronomical Twilight 4:53 AM EDT 9:53 PM EDT
Moon 10:59 AM EDT (5/15) 12:05 AM EDT (5/15)
Length of Visible Light 14h 44m
Length of Day
13h 50m
Waxing Crescent, 26% of the Moon is Illuminated
May 15
Waxing Crescent
May 18
First Quarter
May 25
Full
May 31
Last Quarter
Jun 8
New

Hourly Weather History & Observations

Time (EDT) Temp. Heat Index Dew Point Humidity Pressure Visibility Wind Dir Wind Speed Gust Speed Precip Events Conditions
12:15 AM 63.3 °F - 51.6 °F 66% 30.18 in 10.0 mi South 3.5 mph - N/A   Clear
12:35 AM 63.5 °F - 51.3 °F 64% 30.18 in 10.0 mi South 3.5 mph - N/A   Clear
12:55 AM 62.6 °F - 51.3 °F 66% 30.17 in 10.0 mi Calm Calm - N/A   Clear
1:15 AM 61.9 °F - 51.3 °F 68% 30.17 in 10.0 mi Calm Calm - N/A   Clear
1:35 AM 61.7 °F - 50.9 °F 68% 30.17 in 10.0 mi Calm Calm - N/A   Clear
1:55 AM 61.0 °F - 50.9 °F 69% 30.17 in 10.0 mi Calm Calm - N/A   Clear
2:35 AM 58.3 °F - 51.1 °F 77% 30.17 in 10.0 mi Calm Calm - N/A   Clear
2:55 AM 57.7 °F - 51.4 °F 79% 30.17 in 10.0 mi Calm Calm - N/A   Clear
3:15 AM 59.2 °F - 51.6 °F 76% 30.17 in 10.0 mi Calm Calm - N/A   Clear
3:35 AM 59.5 °F - 51.3 °F 74% 30.17 in 10.0 mi Calm Calm - N/A   Clear
3:55 AM 59.9 °F - 51.3 °F 73% 30.16 in 10.0 mi Calm Calm - N/A   Clear
4:15 AM 59.9 °F - 51.3 °F 73% 30.16 in 10.0 mi Calm Calm - N/A   Clear
4:35 AM 60.6 °F - 51.4 °F 72% 30.17 in 10.0 mi Calm Calm - N/A   Clear
4:55 AM 59.9 °F - 51.4 °F 74% 30.17 in 10.0 mi Calm Calm - N/A   Clear
5:15 AM 59.2 °F - 51.6 °F 76% 30.17 in 10.0 mi Calm Calm - N/A   Clear
5:35 AM 60.3 °F - 51.3 °F 72% 30.17 in 10.0 mi Calm Calm - N/A   Clear
5:55 AM 59.4 °F - 51.1 °F 74% 30.18 in 10.0 mi WSW 3.5 mph - N/A   Clear
6:15 AM 59.5 °F - 51.3 °F 74% 30.18 in 10.0 mi Calm Calm - N/A   Clear
6:35 AM 58.6 °F - 51.8 °F 78% 30.19 in 10.0 mi Calm Calm - N/A   Clear
6:55 AM 59.2 °F - 51.8 °F 77% 30.20 in 10.0 mi WSW 3.5 mph - N/A   Clear
7:15 AM 60.3 °F - 52.2 °F 75% 30.19 in 10.0 mi Calm Calm - N/A   Clear
7:35 AM 61.5 °F - 52.9 °F 73% 30.20 in 10.0 mi WSW 3.5 mph - N/A   Clear
7:55 AM 63.3 °F - 53.6 °F 71% 30.21 in 10.0 mi WSW 4.6 mph - N/A   Clear
8:15 AM 65.1 °F - 53.2 °F 65% 30.21 in 10.0 mi WSW 5.8 mph - N/A   Clear
8:35 AM 67.3 °F - 53.6 °F 61% 30.21 in 10.0 mi WSW 4.6 mph - N/A   Clear
8:55 AM 70.0 °F - 54.3 °F 57% 30.21 in 10.0 mi WSW 5.8 mph - N/A   Clear
9:15 AM 72.5 °F - 54.9 °F 54% 30.22 in 10.0 mi West 8.1 mph - N/A   Clear
9:35 AM 74.8 °F - 55.0 °F 50% 30.21 in 10.0 mi West 8.1 mph - N/A   Clear
9:55 AM 76.5 °F - 55.6 °F 48% 30.20 in 10.0 mi West 8.1 mph 16.1 mph N/A   Clear
10:15 AM 78.6 °F - 56.7 °F 47% 30.20 in 10.0 mi West 6.9 mph - N/A   Clear
10:35 AM 80.1 °F 80.4 °F 56.8 °F 45% 30.19 in 10.0 mi WNW 10.4 mph 16.1 mph N/A   Clear
10:55 AM 81.0 °F 81.1 °F 57.6 °F 45% 30.19 in 10.0 mi West 11.5 mph 20.7 mph N/A   Clear
11:15 AM 81.7 °F 81.6 °F 57.7 °F 44% 30.19 in 10.0 mi West 9.2 mph 17.3 mph N/A   Clear
11:35 AM 82.2 °F 82.1 °F 58.5 °F 44% 30.19 in 10.0 mi West 8.1 mph 18.4 mph N/A   Clear
11:55 AM 84.2 °F 83.8 °F 58.6 °F 42% 30.17 in 10.0 mi WNW 12.7 mph - N/A   Clear
12:15 PM 83.3 °F 83.1 °F 58.6 °F 43% 30.17 in 10.0 mi West 9.2 mph 17.3 mph N/A   Clear
12:35 PM 85.5 °F 84.8 °F 58.6 °F 40% 30.16 in 7.0 mi WNW 9.2 mph 17.3 mph N/A   Clear
12:55 PM 86.2 °F 85.4 °F 58.3 °F 39% 30.15 in 10.0 mi WNW 9.2 mph - N/A   Clear
1:15 PM 86.5 °F 85.9 °F 59.2 °F 39% 30.15 in 10.0 mi West 9.2 mph 16.1 mph N/A   Clear
1:55 PM 88.2 °F 87.6 °F 59.4 °F 38% 30.13 in 10.0 mi West 6.9 mph 17.3 mph N/A   Clear
2:15 PM 88.0 °F 87.4 °F 59.5 °F 38% 30.12 in 10.0 mi WSW 9.2 mph - N/A   Clear
2:35 PM 88.2 °F 87.6 °F 59.9 °F 38% 30.11 in 10.0 mi WSW 5.8 mph - N/A   Clear
2:55 PM 88.7 °F 88.3 °F 60.1 °F 38% 30.10 in 10.0 mi WSW 8.1 mph - N/A   Clear
3:15 PM 90.1 °F 89.6 °F 60.1 °F 36% 30.09 in 10.0 mi West 6.9 mph - N/A   Clear
3:35 PM 89.4 °F 88.7 °F 59.4 °F 36% 30.08 in 10.0 mi WSW 8.1 mph - N/A   Clear
3:55 PM 89.8 °F 89.1 °F 59.4 °F 36% 30.07 in 10.0 mi West 6.9 mph - N/A   Clear
4:15 PM 90.3 °F 89.6 °F 59.4 °F 35% 30.06 in 10.0 mi SW 5.8 mph - N/A   Clear
4:35 PM 90.5 °F 89.8 °F 59.4 °F 35% 30.06 in 10.0 mi West 6.9 mph - N/A   Clear
4:55 PM 90.1 °F 89.6 °F 59.5 °F 36% 30.05 in 10.0 mi West 8.1 mph - N/A   Clear
5:35 PM 90.1 °F 89.6 °F 59.9 °F 36% 30.05 in 10.0 mi West 6.9 mph - N/A   Clear
5:55 PM 89.8 °F 89.1 °F 59.7 °F 36% 30.04 in 10.0 mi West 9.2 mph - N/A   Clear
6:15 PM 89.8 °F 89.1 °F 59.2 °F 36% 30.04 in 10.0 mi West 9.2 mph - N/A   Clear
6:35 PM 89.2 °F 88.4 °F 59.0 °F 36% 30.04 in 10.0 mi West 6.9 mph - N/A   Clear
6:55 PM 88.7 °F 87.8 °F 58.6 °F 36% 30.04 in 10.0 mi WSW 5.8 mph - N/A   Clear
7:15 PM 87.4 °F 87.2 °F 60.1 °F 40% 30.03 in 10.0 mi WSW 4.6 mph - N/A   Clear
7:35 PM 86.2 °F 86.1 °F 60.8 °F 42% 30.04 in 10.0 mi WSW 4.6 mph - N/A   Clear
7:55 PM 84.9 °F 85.2 °F 61.2 °F 45% 30.04 in 10.0 mi SW 3.5 mph - N/A   Clear
8:15 PM 82.6 °F 83.2 °F 61.7 °F 49% 30.04 in 10.0 mi SW 3.5 mph - N/A   Clear
8:35 PM 80.2 °F 81.4 °F 62.1 °F 54% 30.04 in 10.0 mi SW 3.5 mph - N/A   Clear
8:55 PM 79.9 °F - 61.9 °F 54% 30.05 in 10.0 mi SW 3.5 mph - N/A   Clear
9:15 PM 78.4 °F - 61.9 °F 57% 30.05 in 10.0 mi Calm Calm - N/A   Clear
9:35 PM 74.1 °F - 62.6 °F 67% 30.05 in 10.0 mi Calm Calm - N/A   Clear
9:55 PM 75.9 °F - 62.2 °F 62% 30.06 in 10.0 mi Calm Calm - N/A   Clear
10:15 PM 75.6 °F - 62.2 °F 63% 30.06 in 10.0 mi SW 3.5 mph - N/A   Clear
10:35 PM 75.0 °F - 62.2 °F 64% 30.06 in 10.0 mi Calm Calm - N/A   Clear
10:55 PM 74.3 °F - 62.2 °F 66% 30.06 in 10.0 mi Calm Calm - N/A   Clear
11:15 PM 72.7 °F - 62.2 °F 70% 30.06 in 10.0 mi Calm Calm - N/A   Clear
11:35 PM 72.0 °F - 62.6 °F 72% 30.06 in 10.0 mi Calm Calm - N/A   Clear
11:55 PM 71.6 °F - 62.2 °F 72% 30.06 in 10.0 mi Calm Calm - N/A   Clear